Location: Kumla
(59.1265°N, 15.1401°E)
Time: 04:34:02
(UTC+01:00)

Vanguard 2 - Pass Details

Date: 11 December 2023
Orbit: 554 x 2918 km, 32.9° (Epoch: 04 March)

Event Time Altitude Azimuth Distance (km) Brightness Sun altitude
Rises 17:58:49 0° 196° (SSW) 6,425 12.6 -20.4°
Reaches altitude 10° 18:05:37 10° 178° (S) 5,651 12.0 -21.2°
Maximum altitude 18:14:11 16° 148° (SSE) 5,239 11.5 -22.3°
Enters shadow 18:20:51 12° 124° (SE) 5,461 11.4 -23.2°
